• In Kazakhstan
  • List of Countries
  • For 7 days
  • Water Temperature
  • Weather Map
  • News
  • Weather Widgets
  • user-avatar
    Login

    Hourly Weather Kaposvar

    Today, 10 April, Friday

    Time Temperature Precipitation Wind Pressure Humidity
    00:00 +12°C° 0 mm 2 mps 751 mmHg 47%
    01:00 +12°C° 0 mm 2 mps 751 mmHg 49%
    02:00 +12°C° 0 mm 2 mps 751 mmHg 52%
    03:00 +10°C° 0 mm 2 mps 751 mmHg 55%
    04:00 +10°C° 0 mm 2 mps 751 mmHg 58%
    05:00 +12°C° 0 mm 2 mps 751 mmHg 59%
    06:00 +12°C° 0 mm 2 mps 752 mmHg 61%
    07:00 +13°C° 0 mm 2 mps 752 mmHg 62%
    08:00 +16°C° 0 mm 3 mps 752 mmHg 58%
    09:00 +18°C° 0 mm 4 mps 753 mmHg 53%
    10:00 +20°C° 0 mm 4 mps 753 mmHg 48%
    11:00 +21°C° 0 mm 4 mps 753 mmHg 46%
    12:00 +21°C° 0 mm 4 mps 752 mmHg 43%
    13:00 +22°C° 0 mm 4 mps 752 mmHg 40%
    14:00 +21°C° 0 mm 4 mps 752 mmHg 41%
    15:00 +21°C° 0 mm 4 mps 751 mmHg 42%
    16:00 +20°C° 0 mm 4 mps 751 mmHg 43%
    17:00 +18°C° 0 mm 3 mps 751 mmHg 50%
    18:00 +16°C° 0 mm 3 mps 751 mmHg 56%
    19:00 +14°C° 0 mm 2 mps 751 mmHg 62%
    20:00 +14°C° 0 mm 2 mps 752 mmHg 62%
    21:00 +13°C° 0 mm 2 mps 752 mmHg 62%
    22:00 +12°C° 0 mm 2 mps 752 mmHg 61%
    23:00 +13°C° 0 mm 2 mps 752 mmHg 60%

    Tomorrow, 11 April, Saturday

    Time Temperature Precipitation Wind Pressure Humidity
    00:00 +13°C° 0 mm 1 mps 752 mmHg 59%
    01:00 +13°C° 0 mm 1 mps 752 mmHg 58%
    02:00 +13°C° 0 mm 1 mps 752 mmHg 57%
    03:00 +13°C° 0 mm 1 mps 752 mmHg 56%
    04:00 +13°C° 0 mm 1 mps 752 mmHg 56%
    05:00 +12°C° 0 mm 2 mps 752 mmHg 58%
    06:00 +12°C° 0 mm 2 mps 753 mmHg 61%
    07:00 +12°C° 0 mm 2 mps 753 mmHg 63%
    08:00 +13°C° 0 mm 2 mps 753 mmHg 61%
    09:00 +14°C° 0 mm 2 mps 753 mmHg 58%
    10:00 +15°C° 0 mm 2 mps 753 mmHg 55%
    11:00 +16°C° 0 mm 2 mps 753 mmHg 50%
    12:00 +18°C° 0 mm 2 mps 753 mmHg 46%
    13:00 +19°C° 0 mm 2 mps 753 mmHg 41%
    14:00 +19°C° 0 mm 2 mps 753 mmHg 41%
    15:00 +19°C° 0 mm 2 mps 752 mmHg 42%
    16:00 +19°C° 0 mm 2 mps 752 mmHg 43%
    17:00 +17°C° 0 mm 2 mps 752 mmHg 48%
    18:00 +16°C° 0 mm 2 mps 752 mmHg 53%
    19:00 +14°C° 0 mm 2 mps 752 mmHg 59%
    20:00 +13°C° 0 mm 1 mps 752 mmHg 60%
    21:00 +12°C° 0 mm 1 mps 753 mmHg 62%
    22:00 +12°C° 0 mm 1 mps 753 mmHg 63%
    23:00 +12°C° 0 mm 1 mps 753 mmHg 63%

    Day after tomorrow, 12 April, Sunday

    Time Temperature Precipitation Wind Pressure Humidity
    00:00 +12°C° 0 mm 1 mps 753 mmHg 62%
    01:00 +12°C° 0 mm 1 mps 753 mmHg 62%
    02:00 +12°C° 0 mm 1 mps 753 mmHg 62%
    03:00 +11°C° 0 mm 1 mps 752 mmHg 61%
    04:00 +11°C° 0 mm 1 mps 752 mmHg 61%
    05:00 +12°C° 0 mm 2 mps 752 mmHg 62%
    06:00 +12°C° 0 mm 2 mps 752 mmHg 62%
    07:00 +12°C° 0 mm 2 mps 752 mmHg 63%
    08:00 +13°C° 0 mm 3 mps 752 mmHg 58%
    09:00 +16°C° 0 mm 3 mps 752 mmHg 54%
    10:00 +18°C° 0 mm 3 mps 751 mmHg 49%
    11:00 +18°C° 0 mm 4 mps 751 mmHg 48%
    12:00 +19°C° 0 mm 4 mps 750 mmHg 47%
    13:00 +20°C° 0 mm 4 mps 750 mmHg 45%
    14:00 +20°C° 0 mm 4 mps 749 mmHg 46%
    15:00 +20°C° 0 mm 4 mps 749 mmHg 47%
    16:00 +20°C° 0 mm 4 mps 748 mmHg 47%
    17:00 +18°C° 0 mm 4 mps 748 mmHg 52%
    18:00 +17°C° 0 mm 4 mps 747 mmHg 57%
    19:00 +14°C° 0 mm 4 mps 747 mmHg 62%
    20:00 +14°C° 0 mm 4 mps 747 mmHg 61%
    21:00 +13°C° 0 mm 4 mps 747 mmHg 61%
    22:00 +13°C° 0 mm 4 mps 747 mmHg 60%
    23:00 +12°C° 0 mm 4 mps 746 mmHg 62%

    13 April, Monday

    Time Temperature Precipitation Wind Pressure Humidity
    00:00 +12°C° 0 mm 4 mps 746 mmHg 64%
    01:00 +12°C° 0 mm 4 mps 746 mmHg 66%
    02:00 +11°C° 0 mm 3 mps 746 mmHg 68%
    03:00 +11°C° 0 mm 3 mps 745 mmHg 70%
    04:00 +10°C° 0 mm 3 mps 745 mmHg 72%
    05:00 +11°C° 0 mm 4 mps 745 mmHg 70%
    06:00 +12°C° 0 mm 4 mps 745 mmHg 67%
    07:00 +13°C° 0 mm 5 mps 745 mmHg 65%
    08:00 +15°C° 0 mm 5 mps 745 mmHg 58%
    09:00 +17°C° 0 mm 6 mps 744 mmHg 50%
    10:00 +18°C° 0 mm 7 mps 744 mmHg 42%
    11:00 +20°C° 0 mm 7 mps 744 mmHg 39%
    12:00 +21°C° 0 mm 7 mps 744 mmHg 36%
    13:00 +22°C° 0 mm 7 mps 743 mmHg 34%
    14:00 +22°C° 0 mm 7 mps 743 mmHg 34%
    15:00 +21°C° 0 mm 7 mps 742 mmHg 35%
    16:00 +21°C° 0 mm 6 mps 742 mmHg 36%
    17:00 +19°C° 0 mm 6 mps 742 mmHg 37%
    18:00 +17°C° 0 mm 6 mps 742 mmHg 38%
    19:00 +15°C° 0 mm 6 mps 742 mmHg 39%
    20:00 +15°C° 0 mm 5 mps 742 mmHg 40%
    21:00 +14°C° 0 mm 5 mps 742 mmHg 40%
    22:00 +13°C° 0 mm 5 mps 742 mmHg 40%
    23:00 +13°C° 0 mm 5 mps 741 mmHg 45%

    14 April, Tuesday

    Time Temperature Precipitation Wind Pressure Humidity
    00:00 +12°C° 0 mm 5 mps 741 mmHg 49%
    01:00 +12°C° 0 mm 5 mps 741 mmHg 53%
    02:00 +10°C° 0 mm 5 mps 741 mmHg 56%
    03:00 +11°C° 0 mm 4 mps 741 mmHg 58%
    04:00 +11°C° 0 mm 4 mps 740 mmHg 61%
    05:00 +11°C° 0.5 mm 4 mps 741 mmHg 69%
    06:00 +9°C° 0.5 mm 5 mps 741 mmHg 77%
    07:00 +8°C° 0.5 mm 5 mps 741 mmHg 85%
    08:00 +7°C° 1.5 mm 5 mps 742 mmHg 84%
    09:00 +5°C° 1.5 mm 6 mps 743 mmHg 84%
    10:00 +4°C° 1.5 mm 6 mps 744 mmHg 84%
    11:00 +5°C° 0.5 mm 6 mps 745 mmHg 72%
    12:00 +7°C° 0.5 mm 6 mps 745 mmHg 61%
    13:00 +8°C° 0.5 mm 7 mps 746 mmHg 49%
    14:00 +8°C° 0 mm 6 mps 747 mmHg 46%
    15:00 +9°C° 0 mm 6 mps 747 mmHg 43%
    16:00 +9°C° 0 mm 6 mps 748 mmHg 40%
    17:00 +8°C° 0 mm 4 mps 748 mmHg 45%
    18:00 +7°C° 0 mm 3 mps 748 mmHg 50%
    19:00 +6°C° 0 mm 2 mps 748 mmHg 55%
    20:00 +5°C° 0 mm 2 mps 748 mmHg 56%
    21:00 +5°C° 0 mm 1 mps 749 mmHg 58%
    22:00 +5°C° 0 mm 1 mps 749 mmHg 59%
    23:00 +4°C° 0 mm 1 mps 749 mmHg 58%

    15 April, Wednesday

    Time Temperature Precipitation Wind Pressure Humidity
    00:00 +4°C° 0 mm 1 mps 749 mmHg 58%
    01:00 +3°C° 0 mm 1 mps 749 mmHg 57%
    02:00 +3°C° 0 mm 1 mps 749 mmHg 58%
    03:00 +2°C° 0 mm 1 mps 749 mmHg 59%
    04:00 +1°C° 0 mm 0 mps 749 mmHg 60%
    05:00 +2°C° 0 mm 0 mps 749 mmHg 57%
    06:00 +4°C° 0 mm 0 mps 749 mmHg 54%
    07:00 +5°C° 0 mm 0 mps 749 mmHg 52%
    08:00 +8°C° 0 mm 1 mps 749 mmHg 47%
    09:00 +10°C° 0 mm 1 mps 749 mmHg 43%
    10:00 +10°C° 0 mm 2 mps 749 mmHg 38%
    11:00 +12°C° 0 mm 2 mps 749 mmHg 37%
    12:00 +13°C° 0 mm 2 mps 749 mmHg 36%
    13:00 +14°C° 0 mm 2 mps 749 mmHg 34%
    14:00 +14°C° 0 mm 2 mps 749 mmHg 36%
    15:00 +14°C° 0 mm 2 mps 748 mmHg 37%
    16:00 +14°C° 0 mm 2 mps 748 mmHg 38%
    17:00 +13°C° 0 mm 2 mps 748 mmHg 42%
    18:00 +12°C° 0 mm 1 mps 748 mmHg 46%
    19:00 +11°C° 0 mm 1 mps 748 mmHg 50%
    20:00 +11°C° 0 mm 1 mps 749 mmHg 49%
    21:00 +9°C° 0 mm 2 mps 749 mmHg 49%
    22:00 +9°C° 0 mm 2 mps 749 mmHg 48%
    23:00 +9°C° 0 mm 2 mps 750 mmHg 48%
    Show more